Location: Vancouver
(49.2500°N, 123.1330°W)
Time: 08:52:01
(UTC-07:00)

Oscar 11 - Visible Passes

Search period start: 30 September 2014 00:00
Search period end: 10 October 2014 00:00
Orbit: 617 x 630 km, 97.8° (Epoch: 29 September)

Date Brightness Start Highest point End Pass type
(mag) Time Alt. Az. Time Alt. Az. Time Alt. Az.
30 Sep 8.6 21:53:07 30° N 21:53:07 30° N 21:55:24 10° N visible
01 Oct 9.1 20:34:37 14° NE 20:34:37 14° NE 20:36:10 10° NNE visible
01 Oct 9.0 22:11:52 26° NNW 22:11:52 26° NNW 22:13:50 10° NNW visible
02 Oct 8.9 20:53:22 18° NE 20:53:22 18° NE 20:55:13 10° NNE visible
02 Oct 9.4 22:30:37 21° NNW 22:30:37 21° NNW 22:32:11 10° NNW visible
03 Oct 8.9 21:12:06 21° NNE 21:12:06 21° NNE 21:14:00 10° N visible
03 Oct 9.8 22:49:21 16° NW 22:49:21 16° NW 22:50:25 10° NNW visible
04 Oct 8.9 21:30:51 23° NNE 21:30:51 23° NNE 21:32:39 10° N visible
04 Oct 10.2 23:08:06 12° NW 23:08:06 12° NW 23:08:29 10° NW visible
05 Oct 9.1 21:49:35 22° N 21:49:35 22° N 21:51:12 10° N visible
06 Oct 9.3 20:31:04 12° NE 20:31:04 12° NE 20:31:46 10° NNE visible
06 Oct 9.4 22:08:19 20° NNW 22:08:19 20° NNW 22:09:39 10° NNW visible
07 Oct 9.2 20:49:48 14° NNE 20:49:48 14° NNE 20:50:54 10° NNE visible
07 Oct 9.7 22:27:03 16° NNW 22:27:03 16° NNW 22:28:00 10° NNW visible
08 Oct 9.2 21:08:32 16° NNE 21:08:32 16° NNE 21:09:43 10° N visible
08 Oct 10.1 22:45:47 13° NNW 22:45:47 13° NNW 22:46:15 10° NNW visible
09 Oct 9.3 21:27:15 17° N 21:27:15 17° N 21:28:23 10° N visible
